Location: *
(50.3440°N, 18.6237°E)
Time: 17:14:43
(UTC+00:00)

Lacrosse 5 rocket - Pass Details

Date: 30 November 2020
Orbit: 461 x 635 km, 57.0° (Epoch: 17 January)

Event Time Altitude Azimuth Distance (km) Brightness Sun altitude
Rises 16:50:18 0° 247° (WSW) 2,518 6.2 -19.1°
Reaches altitude 10° 16:52:29 10° 251° (WSW) 1,627 4.9 -19.4°
Maximum altitude 16:56:04 60° 332° (NNW) 535 1.2 -20.0°
Enters shadow 16:56:33 54° 11° (N) 571 1.2 -20.1°
